This is the latest recevied weather packets stored in our database for station/object N1ORT. If no packets are shown the sender has not sent any weather packets the latest 10 day(s).
| Time | Temp. | Humidity | Pressure | Rain* | Wind** | Luminosity | Snow |
|---|---|---|---|---|---|---|---|
| 1777759223 | 9.44° C | 94% | 1008.9 hPa | 5.33 mm | - | 16 W/m² | - |
| 1777758921 | 9.44° C | 94% | 1008.5 hPa | 4.83 mm | - | 13 W/m² | - |
| 1777758617 | 10° C | 91% | 1008.5 hPa | 2.29 mm | - | 10 W/m² | - |
| 1777758315 | 10° C | 90% | 1008.5 hPa | 0.51 mm | - | 9 W/m² | - |
| 1777758012 | 10° C | 88% | 1008.3 hPa | 0 mm | - | 9 W/m² | - |
| 1777757708 | 10° C | 87% | 1008.5 hPa | 0 mm | - | 12 W/m² | - |
| 1777757407 | 10° C | 86% | 1008.2 hPa | 0 mm | - | 11 W/m² | - |
| 1777757105 | 10° C | 86% | 1008.5 hPa | 0 mm | - | 18 W/m² | - |
| 1777756802 | 10° C | 86% | 1008.4 hPa | 0 mm | - | 18 W/m² | - |
| 1777756497 | 10° C | 86% | 1008.4 hPa | 0 mm | - | 23 W/m² | - |
| 1777756195 | 10° C | 86% | 1008.4 hPa | 0 mm | - | 23 W/m² | - |
| 1777755892 | 10° C | 86% | 1008.4 hPa | 0 mm | - | 13 W/m² | - |
| 1777755589 | 10.56° C | 85% | 1008.3 hPa | 0 mm | - | 21 W/m² | - |
| 1777755285 | 10.56° C | 86% | 1008.3 hPa | 0 mm | - | 34 W/m² | - |
| 1777754982 | 10.56° C | 85% | 1008.2 hPa | 0 mm | - | 27 W/m² | - |
| 1777754679 | 10.56° C | 85% | 1008.2 hPa | 0 mm | - | 29 W/m² | - |
| 1777754377 | 10.56° C | 85% | 1008.3 hPa | 0 mm | - | 25 W/m² | - |
| 1777754074 | 10.56° C | 85% | 1008.4 hPa | 0 mm | - | 37 W/m² | - |
| 1777753770 | 10.56° C | 84% | 1008.5 hPa | 0 mm | - | 56 W/m² | - |
| 1777753467 | 10.56° C | 85% | 1008.4 hPa | 0 mm | - | 66 W/m² | - |
| 1777753165 | 10.56° C | 84% | 1008.6 hPa | 0 mm | - | 65 W/m² | - |
| 1777752861 | 10.56° C | 85% | 1008.4 hPa | 0 mm | - | 73 W/m² | - |
| 1777752558 | 10.56° C | 84% | 1008.4 hPa | 0 mm | - | 84 W/m² | - |
| 1777752253 | 10.56° C | 84% | 1008.6 hPa | 0 mm | - | 45 W/m² | - |
| 1777751952 | 10.56° C | 84% | 1008.6 hPa | 0 mm | - | 47 W/m² | - |
* Rain latest hour (hover to see other rain measurements)
** Current wind speed in m/s (hover to see current wind gust speed)